Data No,UTC Date,UTC Time,Latitude,Longitude,Course(deg),Temp(degC),Sal(psu)
503,2022/9/9,8:22,42-36.91N,141-37.07E,213,21.294,32.117
504,2022/9/9,8:23,42-36.69N,141-36.87E,213,21.304,32.1643
505,2022/9/9,8:24,42-36.40N,141-36.76E,186,21.595,32.3866
506,2022/9/9,8:25,42-36.12N,141-36.78E,176,21.577,32.5089
507,2022/9/9,8:26,42-35.85N,141-36.81E,175,21.548,32.58
508,2022/9/9,8:27,42-35.57N,141-36.84E,175,21.613,32.8375
509,2022/9/9,8:28,42-35.29N,141-36.86E,176,21.596,32.8904
510,2022/9/9,8:29,42-35.03N,141-36.88E,177,21.413,32.9519
511,2022/9/9,8:30,42-34.75N,141-36.90E,177,21.382,33.1098
512,2022/9/9,8:31,42-34.48N,141-36.91E,177,21.431,33.2585
513,2022/9/9,8:32,42-34.19N,141-36.93E,177,21.564,33.3566
514,2022/9/9,8:33,42-33.87N,141-36.95E,177,21.529,33.4272
515,2022/9/9,8:34,42-33.60N,141-36.96E,177,21.497,33.45
516,2022/9/9,8:35,42-33.31N,141-36.98E,177,21.511,33.4664
517,2022/9/9,8:36,42-33.03N,141-36.99E,177,21.517,33.4702
518,2022/9/9,8:37,42-32.75N,141-37.01E,177,21.601,33.48
519,2022/9/9,8:38,42-32.48N,141-37.02E,177,21.6,33.4922
520,2022/9/9,8:39,42-32.20N,141-37.04E,177,21.669,33.5108
521,2022/9/9,8:40,42-31.91N,141-37.05E,177,21.707,33.5291
522,2022/9/9,8:41,42-31.63N,141-37.07E,177,21.724,33.5419
523,2022/9/9,8:42,42-31.35N,141-37.08E,177,21.796,33.5522
524,2022/9/9,8:43,42-31.06N,141-37.10E,177,21.688,33.5587
525,2022/9/9,8:44,42-30.79N,141-37.11E,177,21.568,33.5613
526,2022/9/9,8:45,42-30.51N,141-37.13E,177,21.616,33.5641
527,2022/9/9,8:46,42-30.23N,141-37.14E,177,21.655,33.5674
528,2022/9/9,8:47,42-29.95N,141-37.16E,178,21.635,33.5629
529,2022/9/9,8:48,42-29.67N,141-37.17E,177,21.634,33.5642
530,2022/9/9,8:49,42-29.39N,141-37.19E,178,21.616,33.5583
531,2022/9/9,8:50,42-29.10N,141-37.20E,177,21.554,33.5552
532,2022/9/9,8:51,42-28.83N,141-37.22E,177,21.569,33.553
533,2022/9/9,8:52,42-28.54N,141-37.23E,177,21.651,33.5485
534,2022/9/9,8:53,42-28.25N,141-37.25E,177,21.676,33.5496
535,2022/9/9,8:54,42-27.98N,141-37.26E,177,21.62,33.545
536,2022/9/9,8:55,42-27.70N,141-37.27E,178,21.52,33.5402
537,2022/9/9,8:56,42-27.42N,141-37.29E,177,21.54,33.5302
538,2022/9/9,8:57,42-27.14N,141-37.30E,178,21.664,33.526
539,2022/9/9,8:58,42-26.90N,141-37.31E,177,21.704,33.5291
540,2022/9/9,8:59,42-26.58N,141-37.33E,178,21.595,33.5335
541,2022/9/9,9:00,42-26.29N,141-37.34E,178,21.613,33.533
542,2022/9/9,9:01,42-26.03N,141-37.35E,178,21.537,33.5248
543,2022/9/9,9:02,42-25.76N,141-37.35E,180,21.596,33.5233
544,2022/9/9,9:03,42-25.45N,141-37.35E,181,21.662,33.5148
545,2022/9/9,9:04,42-25.17N,141-37.33E,182,21.647,33.5143
546,2022/9/9,9:05,42-24.89N,141-37.31E,182,21.567,33.5105
547,2022/9/9,9:06,42-24.61N,141-37.30E,182,21.536,33.5046
548,2022/9/9,9:07,42-24.32N,141-37.28E,182,21.524,33.5004
549,2022/9/9,9:08,42-24.05N,141-37.27E,182,21.429,33.5109
550,2022/9/9,9:09,42-23.76N,141-37.26E,182,21.417,33.5129
551,2022/9/9,9:10,42-23.46N,141-37.25E,182,21.297,33.5041
552,2022/9/9,9:11,42-23.18N,141-37.23E,182,21.23,33.4981
553,2022/9/9,9:12,42-22.91N,141-37.22E,182,21.172,33.4969
554,2022/9/9,9:13,42-22.63N,141-37.20E,182,21.195,33.4985
555,2022/9/9,9:14,42-22.34N,141-37.19E,182,21.204,33.4975
556,2022/9/9,9:15,42-22.06N,141-37.17E,182,21.213,33.5017
557,2022/9/9,9:16,42-21.79N,141-37.15E,182,21.244,33.5062
558,2022/9/9,9:17,42-21.50N,141-37.14E,182,21.38,33.5065
559,2022/9/9,9:18,42-21.23N,141-37.12E,182,21.438,33.5119
560,2022/9/9,9:19,42-20.95N,141-37.11E,182,21.341,33.5153
561,2022/9/9,9:20,42-20.67N,141-37.09E,182,21.356,33.5205
562,2022/9/9,9:21,42-20.39N,141-37.07E,182,21.415,33.5341
563,2022/9/9,9:22,42-20.11N,141-37.05E,182,21.414,33.5401
564,2022/9/9,9:23,42-19.84N,141-37.04E,183,21.155,33.5447
565,2022/9/9,9:24,42-19.56N,141-37.02E,183,21.066,33.5428
566,2022/9/9,9:25,42-19.28N,141-37.00E,183,21.244,33.5408
567,2022/9/9,9:26,42-19.03N,141-36.98E,182,21.293,33.5407
568,2022/9/9,9:27,42-18.76N,141-36.96E,183,21.339,33.5481
569,2022/9/9,9:28,42-18.49N,141-36.94E,183,21.317,33.5472
570,2022/9/9,9:29,42-18.21N,141-36.92E,183,21.315,33.5391
571,2022/9/9,9:30,42-17.93N,141-36.90E,182,21.36,33.5261
572,2022/9/9,9:31,42-17.65N,141-36.88E,183,21.38,33.5233
573,2022/9/9,9:32,42-17.33N,141-36.86E,183,21.374,33.519
574,2022/9/9,9:33,42-17.05N,141-36.84E,182,21.363,33.5128
575,2022/9/9,9:34,42-16.76N,141-36.82E,183,21.333,33.5038
576,2022/9/9,9:35,42-16.52N,141-36.80E,183,21.33,33.4902
577,2022/9/9,9:36,42-16.24N,141-36.77E,183,21.297,33.4815
578,2022/9/9,9:37,42-15.92N,141-36.75E,183,21.216,33.4766
579,2022/9/9,9:38,42-15.64N,141-36.73E,183,21.166,33.4754
580,2022/9/9,9:39,42-15.40N,141-36.71E,183,21.183,33.475
581,2022/9/9,9:40,42-15.11N,141-36.69E,182,21.184,33.4795
582,2022/9/9,9:41,42-14.83N,141-36.67E,183,21.164,33.4866
583,2022/9/9,9:42,42-14.54N,141-36.65E,183,21.169,33.4863
584,2022/9/9,9:43,42-14.26N,141-36.62E,183,21.11,33.4913
585,2022/9/9,9:44,42-13.98N,141-36.60E,183,21.137,33.5025
586,2022/9/9,9:45,42-13.70N,141-36.58E,183,21.172,33.5107
587,2022/9/9,9:46,42-13.42N,141-36.56E,183,21.201,33.5157
588,2022/9/9,9:47,42-13.13N,141-36.53E,183,21.193,33.5215
589,2022/9/9,9:48,42-12.85N,141-36.51E,183,21.236,33.5278
590,2022/9/9,9:49,42-12.56N,141-36.49E,183,21.278,33.5256
591,2022/9/9,9:50,42-12.27N,141-36.46E,183,21.298,33.5283
592,2022/9/9,9:51,42-12.00N,141-36.44E,183,21.346,33.5366
593,2022/9/9,9:52,42-11.71N,141-36.42E,183,21.316,33.545
594,2022/9/9,9:53,42-11.43N,141-36.40E,183,21.258,33.5509
595,2022/9/9,9:54,42-11.15N,141-36.39E,180,21.086,33.5666
596,2022/9/9,9:55,42-10.85N,141-36.39E,178,21.304,33.5769
597,2022/9/9,9:56,42-10.58N,141-36.40E,178,21.203,33.5823
598,2022/9/9,9:57,42-10.30N,141-36.41E,179,21.174,33.5676
599,2022/9/9,9:58,42-10.02N,141-36.41E,179,21.185,33.5565
600,2022/9/9,9:59,42-09.74N,141-36.42E,178,21.18,33.5508
601,2022/9/9,10:00,42-09.45N,141-36.42E,179,21.17,33.5484
602,2022/9/9,10:01,42-09.17N,141-36.43E,179,21.228,33.5465
603,2022/9/9,10:02,42-08.89N,141-36.43E,179,21.27,33.5434
604,2022/9/9,10:03,42-08.61N,141-36.44E,179,21.293,33.5379
605,2022/9/9,10:04,42-08.33N,141-36.44E,179,21.362,33.5298
606,2022/9/9,10:05,42-08.04N,141-36.44E,178,21.381,33.5286
607,2022/9/9,10:06,42-07.76N,141-36.45E,179,21.495,33.5281
608,2022/9/9,10:07,42-07.47N,141-36.45E,179,21.576,33.5331
609,2022/9/9,10:08,42-07.19N,141-36.46E,179,21.551,33.5331
610,2022/9/9,10:09,42-06.90N,141-36.46E,179,21.542,33.5377
611,2022/9/9,10:10,42-06.61N,141-36.47E,178,21.587,33.5414
612,2022/9/9,10:11,42-06.34N,141-36.48E,178,21.671,33.545
613,2022/9/9,10:12,42-06.05N,141-36.48E,180,21.618,33.5576
614,2022/9/9,10:13,42-05.77N,141-36.47E,181,21.741,33.569
615,2022/9/9,10:14,42-05.48N,141-36.46E,181,21.81,33.5796
616,2022/9/9,10:15,42-05.18N,141-36.46E,180,21.745,33.5799
617,2022/9/9,10:16,42-04.91N,141-36.45E,181,21.847,33.5872
618,2022/9/9,10:17,42-04.62N,141-36.44E,181,21.744,33.5891
619,2022/9/9,10:18,42-04.33N,141-36.43E,180,21.612,33.5875
620,2022/9/9,10:19,42-04.05N,141-36.43E,179,21.644,33.553
621,2022/9/9,10:20,42-03.76N,141-36.44E,178,21.777,33.524
622,2022/9/9,10:21,42-03.47N,141-36.45E,178,21.712,33.5184
623,2022/9/9,10:22,42-03.19N,141-36.46E,177,21.599,33.513
624,2022/9/9,10:23,42-02.90N,141-36.47E,178,21.514,33.4388
625,2022/9/9,10:24,42-02.63N,141-36.48E,178,21.397,33.3181
626,2022/9/9,10:25,42-02.34N,141-36.49E,178,21.434,33.2235
627,2022/9/9,10:26,42-02.06N,141-36.50E,177,21.451,33.1508
628,2022/9/9,10:27,42-01.78N,141-36.51E,177,21.534,33.0944
629,2022/9/9,10:28,42-01.49N,141-36.53E,178,21.601,33.0257
630,2022/9/9,10:29,42-01.22N,141-36.54E,178,21.586,32.9923
631,2022/9/9,10:30,42-00.93N,141-36.54E,178,21.525,32.9657
632,2022/9/9,10:31,42-00.65N,141-36.55E,178,21.503,32.9436
633,2022/9/9,10:32,42-00.37N,141-36.56E,179,21.421,32.9215
634,2022/9/9,10:33,42-00.08N,141-36.56E,179,21.343,32.9032
635,2022/9/9,10:34,41-59.79N,141-36.57E,178,21.308,32.8967
636,2022/9/9,10:35,41-59.51N,141-36.58E,178,21.352,32.9031
637,2022/9/9,10:36,41-59.22N,141-36.58E,179,21.39,32.8999
638,2022/9/9,10:37,41-58.93N,141-36.59E,179,21.408,32.8924
639,2022/9/9,10:38,41-58.65N,141-36.59E,179,21.391,32.8862
640,2022/9/9,10:39,41-58.36N,141-36.59E,179,21.338,32.8746
641,2022/9/9,10:40,41-58.08N,141-36.60E,179,21.317,32.8699
642,2022/9/9,10:41,41-57.78N,141-36.60E,178,21.363,32.8737
643,2022/9/9,10:42,41-57.49N,141-36.61E,179,21.465,32.8678
644,2022/9/9,10:43,41-57.21N,141-36.61E,179,21.589,32.8324
645,2022/9/9,10:44,41-56.93N,141-36.61E,179,21.592,32.8125
646,2022/9/9,10:45,41-56.65N,141-36.62E,179,21.548,32.8029
647,2022/9/9,10:46,41-56.36N,141-36.62E,179,21.528,32.7897
648,2022/9/9,10:47,41-56.07N,141-36.63E,179,21.561,32.7858
649,2022/9/9,10:48,41-55.79N,141-36.63E,179,21.491,32.7968
650,2022/9/9,10:49,41-55.51N,141-36.64E,178,21.37,32.809
651,2022/9/9,10:50,41-55.23N,141-36.64E,178,21.192,32.8311
652,2022/9/9,10:51,41-54.93N,141-36.65E,179,21.093,32.8624
653,2022/9/9,10:52,41-54.65N,141-36.65E,179,21.071,32.8784
654,2022/9/9,10:53,41-54.37N,141-36.66E,178,21.106,32.8912
655,2022/9/9,10:54,41-54.09N,141-36.67E,179,21.245,32.9015
656,2022/9/9,10:55,41-53.80N,141-36.68E,178,21.129,32.9029
657,2022/9/9,10:56,41-53.51N,141-36.69E,178,21.193,32.9076
658,2022/9/9,10:57,41-53.23N,141-36.70E,178,21.271,32.9199
659,2022/9/9,10:58,41-52.93N,141-36.71E,178,21.262,32.9247
660,2022/9/9,10:59,41-52.63N,141-36.72E,178,21.225,32.9345
661,2022/9/9,11:00,41-52.35N,141-36.73E,178,21.072,32.9435
662,2022/9/9,11:01,41-52.07N,141-36.74E,178,21.084,32.9792
663,2022/9/9,11:02,41-51.79N,141-36.75E,177,21,33.0148
664,2022/9/9,11:03,41-51.49N,141-36.76E,178,21.08,33.0531
665,2022/9/9,11:04,41-51.27N,141-36.77E,178,21.107,33.0762
666,2022/9/9,11:05,41-50.99N,141-36.78E,177,20.763,33.0903
667,2022/9/9,11:06,41-50.71N,141-36.80E,177,20.74,33.2283
668,2022/9/9,11:07,41-50.43N,141-36.81E,177,20.679,33.3915
669,2022/9/9,11:08,41-50.15N,141-36.83E,177,20.611,33.4853
670,2022/9/9,11:09,41-49.86N,141-36.84E,178,20.434,33.5715
671,2022/9/9,11:10,41-49.59N,141-36.84E,181,20.182,33.6309
672,2022/9/9,11:11,41-49.31N,141-36.83E,180,19.71,33.6334
673,2022/9/9,11:12,41-49.04N,141-36.83E,179,19.867,33.6629
674,2022/9/9,11:13,41-48.76N,141-36.83E,180,19.904,33.6446
675,2022/9/9,11:14,41-48.47N,141-36.83E,179,19.91,33.5638
676,2022/9/9,11:15,41-48.20N,141-36.83E,179,19.925,33.5026
677,2022/9/9,11:16,41-47.92N,141-36.83E,179,19.961,33.4379
678,2022/9/9,11:17,41-47.65N,141-36.83E,179,20.11,33.3593
679,2022/9/9,11:18,41-47.38N,141-36.83E,179,20.258,33.2575
680,2022/9/9,11:19,41-47.10N,141-36.84E,179,20.356,33.0487
681,2022/9/9,11:20,41-46.85N,141-36.84E,178,20.491,32.9108
682,2022/9/9,11:21,41-46.58N,141-36.85E,178,20.716,32.8278
683,2022/9/9,11:22,41-46.31N,141-36.86E,178,20.88,32.7335
684,2022/9/9,11:23,41-46.06N,141-36.87E,178,21.014,32.6088
685,2022/9/9,11:24,41-45.79N,141-36.88E,178,21.045,32.4883
686,2022/9/9,11:25,41-45.52N,141-36.89E,178,21.058,32.3983
687,2022/9/9,11:26,41-45.25N,141-36.90E,178,21.103,32.3404
688,2022/9/9,11:27,41-44.99N,141-36.91E,178,21.091,32.3003
689,2022/9/9,11:28,41-44.71N,141-36.92E,178,21.124,32.2758
690,2022/9/9,11:29,41-44.44N,141-36.93E,177,21.107,32.2551
691,2022/9/9,11:30,41-44.17N,141-36.94E,178,21.053,32.2366
692,2022/9/9,11:31,41-43.86N,141-36.95E,177,21.021,32.2391
693,2022/9/9,11:32,41-43.59N,141-36.96E,177,21.021,32.2541
694,2022/9/9,11:33,41-43.32N,141-36.98E,177,21.055,32.2684
695,2022/9/9,11:34,41-43.05N,141-36.99E,177,20.961,32.2667
696,2022/9/9,11:35,41-42.82N,141-37.01E,177,20.938,32.2716
697,2022/9/9,11:36,41-42.54N,141-37.02E,178,20.925,32.2988
698,2022/9/9,11:37,41-42.28N,141-37.03E,177,20.884,32.3276
699,2022/9/9,11:38,41-41.96N,141-37.05E,177,20.72,32.3442
700,2022/9/9,11:39,41-41.67N,141-37.06E,177,20.663,32.397
701,2022/9/9,11:40,41-41.42N,141-37.07E,177,20.634,32.5036
702,2022/9/9,11:41,41-41.19N,141-37.08E,177,20.795,32.6665
703,2022/9/9,11:42,41-40.91N,141-37.09E,178,21.092,32.9226
704,2022/9/9,11:43,41-40.65N,141-37.10E,178,21.166,33.2561
705,2022/9/9,11:44,41-40.37N,141-37.11E,178,21.074,33.3121
706,2022/9/9,11:45,41-40.09N,141-37.12E,178,21.032,33.314
707,2022/9/9,11:46,41-39.80N,141-37.14E,177,21.47,33.2195
708,2022/9/9,11:47,41-39.52N,141-37.14E,180,22.047,33.2041
709,2022/9/9,11:48,41-39.27N,141-37.13E,181,22.106,33.4137
710,2022/9/9,11:49,41-38.99N,141-37.12E,181,22.016,33.5869
711,2022/9/9,11:50,41-38.73N,141-37.11E,181,21.949,33.6301
712,2022/9/9,11:51,41-38.44N,141-37.09E,182,21.914,33.6736
713,2022/9/9,11:52,41-38.18N,141-37.08E,182,21.799,33.6888
714,2022/9/9,11:53,41-37.91N,141-37.07E,181,21.696,33.7017
715,2022/9/9,11:54,41-37.62N,141-37.06E,180,21.66,33.7167
716,2022/9/9,11:55,41-37.35N,141-37.06E,181,21.759,33.726
717,2022/9/9,11:56,41-37.06N,141-37.05E,181,21.723,33.7264
718,2022/9/9,11:57,41-36.79N,141-37.04E,181,21.656,33.7287
719,2022/9/9,11:58,41-36.50N,141-37.03E,181,21.613,33.7361
720,2022/9/9,11:59,41-36.21N,141-37.02E,181,21.639,33.7478
721,2022/9/9,12:00,41-35.92N,141-37.01E,180,21.661,33.7455
722,2022/9/9,12:01,41-35.64N,141-37.00E,181,21.813,33.7502
723,2022/9/9,12:02,41-35.35N,141-36.99E,181,21.932,33.7361
724,2022/9/9,12:03,41-35.02N,141-36.98E,181,21.89,33.7246
725,2022/9/9,12:04,41-34.73N,141-36.96E,182,21.849,33.7194
726,2022/9/9,12:05,41-34.44N,141-36.95E,181,21.923,33.7255
727,2022/9/9,12:06,41-34.15N,141-36.94E,181,22.034,33.7248
728,2022/9/9,12:07,41-33.86N,141-36.93E,181,22.089,33.7151
729,2022/9/9,12:08,41-33.57N,141-36.92E,181,22.015,33.7075
730,2022/9/9,12:09,41-33.27N,141-36.91E,181,21.971,33.698
731,2022/9/9,12:10,41-32.99N,141-36.90E,181,21.874,33.7001
732,2022/9/9,12:11,41-32.70N,141-36.89E,181,21.873,33.7084
733,2022/9/9,12:12,41-32.40N,141-36.87E,181,21.96,33.718
734,2022/9/9,12:13,41-32.17N,141-36.86E,181,21.98,33.7247
735,2022/9/9,12:14,41-31.88N,141-36.85E,181,22.011,33.7269
736,2022/9/9,12:15,41-31.59N,141-36.84E,180,22.009,33.7231
737,2022/9/9,12:16,41-31.31N,141-36.84E,180,22.066,33.7275
738,2022/9/9,12:17,41-31.03N,141-36.84E,180,22.081,33.7243
739,2022/9/9,12:18,41-30.75N,141-36.83E,180,22.09,33.7206
740,2022/9/9,12:19,41-30.44N,141-36.83E,179,22.093,33.7168
741,2022/9/9,12:20,41-30.16N,141-36.83E,180,22.07,33.7128
742,2022/9/9,12:21,41-29.87N,141-36.83E,179,22.055,33.7149
743,2022/9/9,12:22,41-29.59N,141-36.83E,180,21.641,33.7127
744,2022/9/9,12:23,41-29.33N,141-36.84E,179,21.82,33.7272
745,2022/9/9,12:24,41-29.06N,141-36.84E,180,22.07,33.7362
746,2022/9/9,12:25,41-28.80N,141-36.84E,179,22.194,33.7276
747,2022/9/9,12:26,41-28.53N,141-36.83E,183,22.31,33.714
748,2022/9/9,12:27,41-28.27N,141-36.79E,185,22.35,33.7152
749,2022/9/9,12:28,41-28.01N,141-36.76E,185,22.437,33.7287
750,2022/9/9,12:29,41-27.74N,141-36.72E,186,22.509,33.7363
751,2022/9/9,12:30,41-27.48N,141-36.68E,186,22.638,33.7445
752,2022/9/9,12:31,41-27.21N,141-36.64E,186,22.808,33.7495
753,2022/9/9,12:32,41-26.95N,141-36.60E,186,22.864,33.7552
754,2022/9/9,12:33,41-26.69N,141-36.56E,187,22.855,33.7676
755,2022/9/9,12:34,41-26.41N,141-36.52E,187,22.772,33.7657
756,2022/9/9,12:35,41-26.14N,141-36.47E,187,22.676,33.769
757,2022/9/9,12:36,41-25.86N,141-36.43E,186,22.705,33.7678
758,2022/9/9,12:37,41-25.61N,141-36.39E,187,22.774,33.7653
759,2022/9/9,12:38,41-25.33N,141-36.34E,187,22.794,33.7669
760,2022/9/9,12:39,41-25.06N,141-36.30E,187,22.806,33.7611
761,2022/9/9,12:40,41-24.79N,141-36.25E,187,22.753,33.7616
762,2022/9/9,12:41,41-24.50N,141-36.20E,187,22.622,33.7572
763,2022/9/9,12:42,41-24.25N,141-36.15E,188,22.666,33.7546
764,2022/9/9,12:43,41-23.97N,141-36.10E,188,22.698,33.7552
765,2022/9/9,12:44,41-23.69N,141-36.09E,180,22.726,33.7531
766,2022/9/9,12:45,41-23.47N,141-36.11E,177,22.739,33.7588
767,2022/9/9,12:46,41-23.19N,141-36.12E,177,22.73,33.7584
768,2022/9/9,12:47,41-22.92N,141-36.14E,177,22.798,33.7579
769,2022/9/9,12:48,41-22.65N,141-36.15E,177,22.765,33.7563
770,2022/9/9,12:49,41-22.34N,141-36.16E,177,22.637,33.7523
771,2022/9/9,12:50,41-22.06N,141-36.18E,178,22.732,33.7529
772,2022/9/9,12:51,41-21.79N,141-36.19E,178,22.738,33.7504
773,2022/9/9,12:52,41-21.52N,141-36.20E,178,22.584,33.7528
774,2022/9/9,12:53,41-21.25N,141-36.21E,178,22.672,33.7545
775,2022/9/9,12:54,41-20.97N,141-36.23E,178,22.732,33.7479
776,2022/9/9,12:55,41-20.71N,141-36.24E,178,22.813,33.7556
777,2022/9/9,12:56,41-20.42N,141-36.25E,178,22.822,33.7578
778,2022/9/9,12:57,41-20.20N,141-36.27E,177,22.753,33.7611
779,2022/9/9,12:58,41-19.93N,141-36.28E,177,22.639,33.7611
780,2022/9/9,12:59,41-19.65N,141-36.29E,177,22.631,33.7592
781,2022/9/9,13:00,41-19.38N,141-36.30E,177,22.684,33.7636
782,2022/9/9,13:01,41-19.11N,141-36.32E,177,22.717,33.7596
783,2022/9/9,13:02,41-18.84N,141-36.33E,177,22.724,33.7598
784,2022/9/9,13:03,41-18.56N,141-36.34E,177,22.675,33.7566
785,2022/9/9,13:04,41-18.29N,141-36.36E,177,22.787,33.7497
786,2022/9/9,13:05,41-18.02N,141-36.37E,177,22.789,33.7527
787,2022/9/9,13:06,41-17.75N,141-36.39E,177,22.725,33.7527
788,2022/9/9,13:07,41-17.48N,141-36.40E,176,22.815,33.7555
789,2022/9/9,13:08,41-17.22N,141-36.42E,176,22.831,33.7543
790,2022/9/9,13:09,41-16.94N,141-36.44E,176,22.847,33.7498
791,2022/9/9,13:10,41-16.67N,141-36.46E,176,22.889,33.7427
792,2022/9/9,13:11,41-16.40N,141-36.48E,176,22.893,33.7354
793,2022/9/9,13:12,41-16.08N,141-36.50E,177,22.899,33.7281
794,2022/9/9,13:13,41-15.82N,141-36.51E,177,22.857,33.7234
795,2022/9/9,13:14,41-15.54N,141-36.53E,177,22.906,33.7273
796,2022/9/9,13:15,41-15.27N,141-36.54E,177,22.887,33.7258
797,2022/9/9,13:16,41-15.03N,141-36.56E,177,22.837,33.7265
798,2022/9/9,13:17,41-14.75N,141-36.58E,173,22.772,33.728
799,2022/9/9,13:18,41-14.45N,141-36.63E,172,22.758,33.7259
800,2022/9/9,13:19,41-14.18N,141-36.67E,172,22.78,33.7318
801,2022/9/9,13:20,41-13.91N,141-36.74E,168,22.716,33.7367
802,2022/9/9,13:21,41-13.64N,141-36.82E,167,22.743,33.7417
803,2022/9/9,13:22,41-13.37N,141-36.90E,167,22.674,33.7495
804,2022/9/9,13:23,41-13.14N,141-36.97E,166,22.717,33.7436
805,2022/9/9,13:24,41-12.85N,141-37.05E,167,22.6,33.7356
806,2022/9/9,13:25,41-12.59N,141-37.13E,168,22.572,33.7175
807,2022/9/9,13:26,41-12.32N,141-37.19E,168,22.629,33.7081
808,2022/9/9,13:27,41-12.05N,141-37.26E,168,22.508,33.7042
809,2022/9/9,13:28,41-11.79N,141-37.36E,166,22.47,33.6984
810,2022/9/9,13:29,41-11.52N,141-37.44E,165,22.515,33.6961
811,2022/9/9,13:30,41-11.26N,141-37.53E,166,22.535,33.6958
812,2022/9/9,13:31,41-11.04N,141-37.59E,168,22.675,33.6905
813,2022/9/9,13:32,41-10.76N,141-37.66E,169,22.645,33.6905
814,2022/9/9,13:33,41-10.50N,141-37.72E,169,22.612,33.6884
815,2022/9/9,13:34,41-10.22N,141-37.79E,169,22.611,33.6865
816,2022/9/9,13:35,41-09.95N,141-37.86E,168,22.588,33.6881
817,2022/9/9,13:36,41-09.69N,141-37.93E,168,22.518,33.6862
818,2022/9/9,13:37,41-09.41N,141-38.00E,169,22.446,33.6874
819,2022/9/9,13:38,41-09.14N,141-38.07E,169,22.469,33.6837
820,2022/9/9,13:39,41-08.87N,141-38.13E,169,22.605,33.6805
821,2022/9/9,13:40,41-08.57N,141-38.20E,169,22.74,33.6819
822,2022/9/9,13:41,41-08.30N,141-38.27E,169,22.708,33.6787
823,2022/9/9,13:42,41-08.03N,141-38.34E,169,22.795,33.6789
824,2022/9/9,13:43,41-07.76N,141-38.40E,169,22.701,33.6779
825,2022/9/9,13:44,41-07.48N,141-38.47E,169,22.674,33.6738
826,2022/9/9,13:45,41-07.21N,141-38.54E,169,22.66,33.6753
827,2022/9/9,13:46,41-06.96N,141-38.60E,169,22.666,33.6722
828,2022/9/9,13:47,41-06.69N,141-38.68E,169,22.696,33.6705
829,2022/9/9,13:48,41-06.42N,141-38.74E,169,22.715,33.6727
830,2022/9/9,13:49,41-06.14N,141-38.82E,168,22.727,33.6741
831,2022/9/9,13:50,41-05.86N,141-38.89E,168,22.733,33.6773
832,2022/9/9,13:51,41-05.59N,141-38.96E,169,22.739,33.6743
833,2022/9/9,13:52,41-05.31N,141-39.03E,168,22.732,33.6777
834,2022/9/9,13:53,41-05.04N,141-39.10E,169,22.72,33.6768
835,2022/9/9,13:54,41-04.76N,141-39.17E,169,22.704,33.6734
836,2022/9/9,13:55,41-04.48N,141-39.24E,169,22.679,33.6764
837,2022/9/9,13:56,41-04.22N,141-39.31E,169,22.684,33.6727
838,2022/9/9,13:57,41-03.94N,141-39.38E,169,22.692,33.6761
839,2022/9/9,13:58,41-03.67N,141-39.45E,169,22.686,33.6774
840,2022/9/9,13:59,41-03.38N,141-39.52E,169,22.7,33.6724
841,2022/9/9,14:00,41-03.11N,141-39.59E,169,22.711,33.6747
842,2022/9/9,14:01,41-02.83N,141-39.66E,169,22.717,33.6726
843,2022/9/9,14:02,41-02.55N,141-39.72E,169,22.733,33.6735
844,2022/9/9,14:03,41-02.28N,141-39.79E,169,22.736,33.6765
845,2022/9/9,14:04,41-01.99N,141-39.86E,169,22.719,33.6762
846,2022/9/9,14:05,41-01.73N,141-39.92E,170,22.684,33.6747
847,2022/9/9,14:06,41-01.45N,141-39.99E,169,22.684,33.6795
848,2022/9/9,14:07,41-01.16N,141-40.06E,169,22.685,33.6754
849,2022/9/9,14:08,41-00.89N,141-40.12E,169,22.648,33.6777
850,2022/9/9,14:09,41-00.61N,141-40.19E,169,22.647,33.6748
851,2022/9/9,14:10,41-00.33N,141-40.25E,169,22.638,33.6766
852,2022/9/9,14:11,41-00.05N,141-40.32E,169,22.614,33.6756
853,2022/9/9,14:12,40-59.76N,141-40.39E,169,22.562,33.68
854,2022/9/9,14:13,40-59.49N,141-40.45E,169,22.541,33.6763
855,2022/9/9,14:14,40-59.20N,141-40.52E,170,22.539,33.6764
856,2022/9/9,14:15,40-58.92N,141-40.58E,170,22.544,33.6732
857,2022/9/9,14:16,40-58.64N,141-40.64E,170,22.536,33.6739
858,2022/9/9,14:17,40-58.36N,141-40.70E,170,22.496,33.6785
859,2022/9/9,14:18,40-58.08N,141-40.77E,170,22.439,33.6747
860,2022/9/9,14:19,40-57.79N,141-40.83E,170,22.438,33.6785
861,2022/9/9,14:20,40-57.51N,141-40.89E,170,22.417,33.6764
862,2022/9/9,14:21,40-57.22N,141-40.96E,170,22.389,33.6727
863,2022/9/9,14:22,40-56.93N,141-41.02E,170,22.365,33.6726
864,2022/9/9,14:23,40-56.65N,141-41.08E,171,22.385,33.6718
865,2022/9/9,14:24,40-56.36N,141-41.14E,170,22.378,33.6736
866,2022/9/9,14:25,40-56.08N,141-41.19E,171,22.397,33.6752
867,2022/9/9,14:26,40-55.79N,141-41.25E,171,22.369,33.6761
868,2022/9/9,14:27,40-55.49N,141-41.32E,170,22.359,33.6774
869,2022/9/9,14:28,40-55.21N,141-41.38E,171,22.336,33.675
870,2022/9/9,14:29,40-54.92N,141-41.44E,170,22.284,33.6801
871,2022/9/9,14:30,40-54.63N,141-41.50E,170,22.349,33.6912
872,2022/9/9,14:31,40-54.35N,141-41.57E,170,22.405,33.6849
873,2022/9/9,14:32,40-54.05N,141-41.64E,169,22.498,33.6824
874,2022/9/9,14:33,40-53.77N,141-41.70E,169,22.461,33.6782
875,2022/9/9,14:34,40-53.48N,141-41.77E,169,22.47,33.6791
876,2022/9/9,14:35,40-53.20N,141-41.84E,169,22.529,33.6754
877,2022/9/9,14:36,40-52.90N,141-41.92E,167,22.571,33.6752
878,2022/9/9,14:37,40-52.63N,141-42.01E,166,22.572,33.6814
879,2022/9/9,14:38,40-52.35N,141-42.09E,166,22.526,33.6747
880,2022/9/9,14:39,40-52.07N,141-42.18E,166,22.524,33.6776
881,2022/9/9,14:40,40-51.79N,141-42.27E,166,22.613,33.6784
882,2022/9/9,14:41,40-51.51N,141-42.35E,166,22.756,33.6786
883,2022/9/9,14:42,40-51.19N,141-42.45E,166,22.742,33.6792
884,2022/9/9,14:43,40-50.91N,141-42.54E,166,22.6,33.6763
885,2022/9/9,14:44,40-50.66N,141-42.62E,166,22.638,33.6726
886,2022/9/9,14:45,40-50.35N,141-42.71E,166,22.699,33.6685
887,2022/9/9,14:46,40-50.12N,141-42.78E,167,22.683,33.6613
888,2022/9/9,14:47,40-49.83N,141-42.87E,166,22.684,33.6564
889,2022/9/9,14:48,40-49.56N,141-42.95E,166,22.636,33.6514
890,2022/9/9,14:49,40-49.28N,141-43.04E,166,22.603,33.6433
891,2022/9/9,14:50,40-49.00N,141-43.14E,166,22.575,33.6374
892,2022/9/9,14:51,40-48.69N,141-43.24E,165,22.564,33.6377
893,2022/9/9,14:52,40-48.40N,141-43.33E,166,22.568,33.634
894,2022/9/9,14:53,40-48.13N,141-43.42E,166,22.56,33.6415
895,2022/9/9,14:54,40-47.88N,141-43.49E,166,22.366,33.6493
896,2022/9/9,14:55,40-47.60N,141-43.58E,166,22.377,33.6537
897,2022/9/9,14:56,40-47.32N,141-43.67E,165,22.395,33.6641
898,2022/9/9,14:57,40-47.04N,141-43.76E,166,22.385,33.6694
899,2022/9/9,14:58,40-46.76N,141-43.85E,166,22.287,33.6767
900,2022/9/9,14:59,40-46.48N,141-43.94E,166,22.252,33.6804
901,2022/9/9,15:00,40-46.19N,141-44.04E,166,22.346,33.6831
902,2022/9/9,15:01,40-45.90N,141-44.13E,165,22.297,33.685
903,2022/9/9,15:02,40-45.60N,141-44.23E,166,22.247,33.6831